Showing default

NOAA 3, 6920

Orbit data source: Space-Track

NOAA 3, 6920 is a payload satellite owned by NOAA (US) in SSO that was launched on Tue, 06 Nov 1973 UTC via a DELTA 0300 launch vehicle from the Air Force Western Test Range (AFWTR). Payload-class satellites include a variety of spacecraft equipped with specific instruments for various scientific and technological missions. These include communications satellites like Starlink; space stations such as the ISS; scientific satellites like the Hubble; Earth observation satellites from companies like Planet Labs, Umbra, and HawkEye 360; GPS; miniature CubeSats for education and research; and military/defense satellites.

Loading next visibility...
Identifier
6920, 1973-086A
Orbit
SSO
Country
Flag of USUS
Related business
Manufacturer
RCA/East Windsor
Mission
Non-operational Civil Weather
Bus & Motor
TIROS M, Unknown motor
Mass
340 kg wet, 340 kg dry
Launch date (UTC)
1973-11-06 (52 years ago)
Launch vehicle
DELTA 0300
Launch site
Air Force Western Test Range (AFWTR)
Object type
Payload
Rocket body
Debris
Shape & HBR
Hex Poly + 3 Pan, 0.6 m
Radar Cross Section
1.292 m², Large (>1 m²)

Expand to show TLE details & history
Last TLE update: 8 hours ago

TLE from 8 hours ago
0 NOAA 3
1 06920U 73086A   25259.55443803 -.00000025  00000-0  15891-3 0  9991
2 06920 102.2934 265.8470 0006174 269.2287 209.3355 12.40385877347978
Epoch: 2025-09-16T13:18Z
TLE epoch observation values (Epoch: 2025-09-16T13:18:23.445Z)
Latitude
59.23223°
Longitude
-88.13313°
Altitude
1,519.037 km
Speed
7.109 km/s
True Right ascension
07h 08m 49s
True Declination
59° 05' 44"
Sunlit
Object was in daylight at epoch
Visualization orbit readout
Latitude
Unknown
Longitude
Unknown
Altitude
Unknown
Speed
Unknown
Apparent Right ascension
Unknown
Apparent Declination
Unknown
Sunlit
N/A
Visualization observer readout
Local Sidereal Time
14:29:37
Azimuth
Unknown
Elevation
Unknown
Doppler factor
Unknown
Orbital elements
Apogee altitude
1,507.425 km
Perigee altitude
1,497.694 km
Semi-major axis
7,880.697 km
Eccentricity
0.00062
Inclination
102.2934°
RAAN
265.847°
Arg. of periapsis
269.2287°
True anomaly
209.30086°
Mean anomaly
209.3355°
Eccentric anomaly
209.31818°
Mean motion
3.10239 °/min
Orbital period
116.04 mins
BSTAR
0.00015891
Loading maneuver chart data...
Computing Atmospheric mass density...
Loading historical data...
Loading historical data...
Loading historical data...
Loading historical data...
Loading historical data...
Loading historical data...
Loading historical data...

Documentation

Showing up to 5 results
|